This is the latest recevied weather packets stored in our database for station/object KO4LFZ. If no packets are shown the sender has not sent any weather packets the latest 10 day(s).
| Time | Temp. | Humidity | Pressure | Rain* | Wind** | Luminosity | Snow |
|---|---|---|---|---|---|---|---|
| 1787405122 | 23.89° C | 99% | 1016 hPa | 0 mm | - | 368 W/m² | - |
| 1787404819 | 23.33° C | 99% | 1016.1 hPa | 0 mm | - | 328 W/m² | - |
| 1787404514 | 23.33° C | 99% | 1016.1 hPa | 0 mm | - | 178 W/m² | - |
| 1787404214 | 22.78° C | 99% | 1015.9 hPa | 0 mm | - | 164 W/m² | - |
| 1787403909 | 22.78° C | 99% | 1016 hPa | 0 mm | - | 149 W/m² | - |
| 1787403604 | 22.78° C | 99% | 1016.2 hPa | 0 mm | - | 133 W/m² | - |
| 1787403298 | 23.33° C | 99% | 1016 hPa | 0 mm | - | 121 W/m² | - |
| 1787402996 | 22.78° C | 99% | 1016 hPa | 0 mm | - | 108 W/m² | - |
| 1787402691 | 22.22° C | 99% | 1016.2 hPa | 0 mm | - | 99 W/m² | - |
| 1787402390 | 21.67° C | 99% | 1016 hPa | 0 mm | - | 84 W/m² | - |
| 1787402085 | 21.67° C | 99% | 1015.9 hPa | 0 mm | - | 78 W/m² | - |
| 1787401780 | 21.11° C | 99% | 1016 hPa | 0 mm | - | 72 W/m² | - |
| 1787401476 | 21.11° C | 99% | 1016.1 hPa | 0 mm | - | 64 W/m² | - |
| 1787401171 | 21.11° C | 99% | 1016.1 hPa | 0 mm | - | 58 W/m² | - |
| 1787400868 | 20.56° C | 99% | 1016 hPa | 0 mm | - | 51 W/m² | - |
| 1787400567 | 20.56° C | 99% | 1016.1 hPa | 0 mm | - | 44 W/m² | - |
| 1787400263 | 20° C | 99% | 1016.3 hPa | 0 mm | - | 38 W/m² | - |
| 1787399960 | 20° C | 99% | 1016.1 hPa | 0 mm | - | 32 W/m² | - |
| 1787399655 | 20° C | 99% | 1016.2 hPa | 0 mm | - | 28 W/m² | - |
| 1787399354 | 20° C | 99% | 1016.3 hPa | 0 mm | - | 22 W/m² | - |
| 1787399049 | 20° C | 99% | 1016.1 hPa | 0 mm | - | 17 W/m² | - |
| 1787398744 | 19.44° C | 99% | 1015.9 hPa | 0 mm | - | 12 W/m² | - |
| 1787398441 | 18.89° C | 99% | 1016.1 hPa | 0 mm | - | 10 W/m² | - |
| 1787398136 | 18.89° C | 99% | 1016.1 hPa | 0 mm | - | 5 W/m² | - |
| 1787397835 | 18.89° C | 99% | 1016.3 hPa | 0 mm | - | 3 W/m² | - |
* Rain latest hour (hover to see other rain measurements)
** Current wind speed in m/s (hover to see current wind gust speed)